Regional Weather Roundup
Issued by NWS State College, PA

Home | Current Version | Previous Version | Graphics & Text | Print | Product List | Glossary On
Versions: 1 2 3 4 5 6 7 8 9 10 11 12 13 14 15 16 17 18 19 20 21 22 23 24 25 26 27 28 29 30 31 32 33 34 35 36 37 38 39 40 41 42 43 44 45 46 47 48 49 50
000
ASUS41 KCTP 310203
RWRCTP

REGIONAL WEATHER ROUNDUP
NATIONAL WEATHER SERVICE STATE COLLEGE PA
1000 PM EDT THU JUL 30 2015

Note: "fair" indicates few or no clouds below 12,000 feet with no
significant weather and/or obstructions to visibility.

* = STATION THAT DOES NOT REPORT PRECIPITATION /E.G. RAIN...SNOW...ETC/
    THUNDER OR FOG.

PAZ002>004-007>009-013>016-020>023-029>032-310300-
WESTERN PENNSYLVANIA

CITY           SKY/WX    TMP DP  RH WIND       PRES   REMARKS
ERIE           CLEAR     75  62  64 SW7       29.92S
MEADVILLE      PTCLDY    72  55  55 SW5       29.98R
FRANKLIN*      CLEAR     66  52  59 W5        30.00R
NEW CASTLE     FAIR      71  59  66 CALM      29.99R
BEAVER COUNTY  NOT AVBL
BUTLER*        PTCLDY    70  57  64 CALM      30.01R
PITTSBURGH INT PTCLDY    75  57  53 W5        29.99R
PITTSBURGH     MOCLDY    77  52  41 NW7       29.99R
INDIANA*       CLOUDY    75  59  57 NW5       30.02R
LATROBE        MOCLDY    73  57  56 W7        30.00R
WASHINGTON CO* NOT AVBL
$$

PAZ004>006-010>012-017>019-024>028-033>037-041-042-045-046-049>053-310300-
CENTRAL PENNSYLVANIA

CITY           SKY/WX    TMP DP  RH WIND       PRES   REMARKS
BRADFORD       CLEAR     62  54  74 CALM      29.99R
DUBOIS         CLEAR     70  52  52 NW6       29.99R
CLEARFIELD     CLEAR     73  53  49 VRB7      29.98R
JOHNSTOWN      CLEAR     71  54  54 NW10      30.02R
ALTOONA        CLEAR     66  62  87 CALM      29.98R
STATE COLLEGE  NOT AVBL
WILLIAMSPORT   PTCLDY    75  60  59 W7        29.89R
SELINSGROVE    CLEAR     67  66  97 CALM      29.90R
FT INDIANTOWN  CLEAR     80  62  54 W7        29.89R
CAPITAL CITY   CLEAR     75  63  66 W7        29.89R
HARRISBURG     PTCLDY    74  65  73 NW6       29.88R
YORK           CLEAR     67  65  93 CALM      29.90R
$$

PAZ038>040-043-044-047-048-054-055-060>062-067>071-310300-
EASTERN PENNSYLVANIA

CITY           SKY/WX    TMP DP  RH WIND       PRES   REMARKS
SCRANTON       PTCLDY    72  64  76 E3        29.89R
MOUNT POCONO   PTCLDY    66  63  90 CALM      29.94R
ALLENTOWN      PTCLDY    75  71  87 SW3       29.86R
QUAKERTOWN*    PTCLDY    75  73  94 CALM      29.88S
READING        PTCLDY    76  67  73 W5        29.87R
LANCASTER      CLEAR     75  67  76 W3        29.89R
COATESVILLE    PTCLDY    73  73 100 W3        29.91R FOG
POTTSTOWN      PTCLDY    76  74  93 SW3       29.89R
BLUE BELL      MOCLDY    73  72  94 CALM      29.86R
DOYLESTOWN     MOCLDY    74  72  93 VRB3      29.86R
WILLOW GROVE   NOT AVBL
NORTH PHILA    PTCLDY    78  70  76 SW6       29.87R
PHILADELPHIA   MOCLDY    79  74  84 SW9       29.87R
$$


USA.gov is the U.S. government's official web portal to all federal, state and local government web resources and services.